Location: Clarion
(42.7316°N, 93.7330°W)
Time: 09:08:43
(UTC+00:00)

CZ-2D R/B - Pass Details

Date: 22 April 2026
Orbit: 789 x 841 km, 98.9° (Epoch: 16 May)

Event Time Altitude Azimuth Distance (km) Brightness Sun altitude
Rises 08:59:52 0° 15° (NNE) 3,313 6.3 -23.1°
Reaches altitude 10° 09:02:12 10° 17° (NNE) 2,385 5.4 -22.8°
Maximum altitude 09:07:28 77° 103° (ESE) 833 2.1 -22.1°
Enters shadow 09:09:36 38° 183° (S) 1,232 2.7 -21.8°
